TimeMST,TemperatureF,Dew PointF,Humidity,Sea Level PressureIn,VisibilityMPH,Wind Direction,Wind SpeedMPH,Gust SpeedMPH,PrecipitationIn,Events,Conditions,WindDirDegrees,DateUTC
12:29 AM,6.8,3.2,85,29.95,10.0,Calm,Calm,-,0.00,,Overcast,0,2013-01-15 07:29:00
12:53 AM,7.0,3.9,87,30.14,10.0,Calm,Calm,-,0.00,,Overcast,0,2013-01-15 07:53:00
1:53 AM,8.1,5.0,87,30.14,9.0,SSW,8.1,-,0.00,,Overcast,210,2013-01-15 08:53:00
2:53 AM,7.0,3.9,87,30.15,10.0,SSW,9.2,-,N/A,,Overcast,200,2013-01-15 09:53:00
3:15 AM,1.4,-0.4,92,29.96,10.0,SW,4.6,-,N/A,,Overcast,220,2013-01-15 10:15:00
3:36 AM,-0.4,-2.2,92,29.96,1.5,SSW,5.8,-,N/A,,Mostly Cloudy,200,2013-01-15 10:36:00
3:45 AM,-0.4,-2.2,92,29.96,0.2,WSW,3.5,-,N/A,Fog,Light Freezing Fog,250,2013-01-15 10:45:00
3:53 AM,1.0,-2.0,87,30.19,0.2,Calm,Calm,-,N/A,Fog,Light Freezing Fog,0,2013-01-15 10:53:00
3:57 AM,1.4,-0.4,92,29.95,1.0,West,4.6,-,N/A,,Mostly Cloudy,270,2013-01-15 10:57:00
4:05 AM,1.4,-0.4,92,29.95,10.0,WNW,6.9,-,N/A,,Mostly Cloudy,300,2013-01-15 11:05:00
5:53 AM,-8.0,-11.0,86,30.28,10.0,NE,5.8,-,N/A,,Clear,40,2013-01-15 12:53:00
6:53 AM,-6.0,-9.9,83,30.27,10.0,ENE,8.1,-,N/A,,Clear,60,2013-01-15 13:53:00
7:53 AM,-2.9,-8.0,79,30.23,10.0,NE,8.1,-,N/A,,Clear,50,2013-01-15 14:53:00
8:53 AM,1.9,-5.1,72,30.23,10.0,NNE,8.1,-,0.00,,Clear,20,2013-01-15 15:53:00
9:53 AM,3.0,-4.0,73,30.25,10.0,ENE,10.4,-,N/A,,Clear,60,2013-01-15 16:53:00
10:53 AM,6.1,-0.9,73,30.24,10.0,ENE,6.9,-,N/A,,Clear,70,2013-01-15 17:53:00
11:53 AM,12.0,1.9,64,30.20,10.0,ENE,5.8,-,N/A,,Clear,70,2013-01-15 18:53:00
12:53 PM,14.0,3.0,62,30.18,10.0,East,6.9,-,0.00,,Clear,80,2013-01-15 19:53:00
1:53 PM,16.0,5.0,62,30.17,10.0,East,6.9,-,N/A,,Clear,80,2013-01-15 20:53:00
2:53 PM,17.1,5.0,59,30.19,10.0,ESE,6.9,-,N/A,,Clear,110,2013-01-15 21:53:00
3:53 PM,17.1,1.0,50,30.26,10.0,Calm,Calm,-,N/A,,Scattered Clouds,0,2013-01-15 22:53:00
4:53 PM,15.1,6.1,68,30.30,10.0,SW,3.5,-,N/A,,Mostly Cloudy,220,2013-01-15 23:53:00
5:53 PM,18.0,3.9,54,30.33,10.0,SW,5.8,-,N/A,,Overcast,220,2013-01-16 00:53:00
6:53 PM,15.1,3.9,61,30.34,10.0,Calm,Calm,-,N/A,,Overcast,0,2013-01-16 01:53:00
7:53 PM,17.1,1.9,52,30.33,10.0,Calm,Calm,-,N/A,,Overcast,0,2013-01-16 02:53:00
8:53 PM,15.1,1.0,54,30.31,10.0,North,4.6,-,N/A,,Clear,350,2013-01-16 03:53:00
9:53 PM,12.9,1.0,59,30.32,10.0,NNW,8.1,-,N/A,,Clear,330,2013-01-16 04:53:00
11:53 PM,12.9,1.0,59,30.28,10.0,NE,5.8,-,N/A,,Clear,40,2013-01-16 06:53:00